| time (UTC) | temp F | wind direction | speed knots | gust knots | rain 1hr in | rain 24hr in | rain mn in | humidity % | barometer mb |
| 20260509132037 | 51 | 198 | 0.9 | 2.6 | 0.00 | 0.01 | 0.00 | 85 | 1008.8 |
| 20260509131601 | 51 | 0 | 0.9 | 4.3 | 0.00 | 0.01 | 0.00 | 86 | 1008.9 |
| 20260509131035 | 51 | 0 | 0.9 | 4.3 | 0.00 | 0.01 | 0.00 | 86 | 1008.9 |
| 20260509130537 | 50 | 132 | 0.0 | 2.6 | 0.00 | 0.01 | 0.00 | 85 | 1009.0 |
| 20260509130053 | 50 | 170 | 0.0 | 2.6 | 0.00 | 0.01 | 0.00 | 86 | 1009.0 |
| 20260509125534 | 50 | 0 | 0.0 | 2.6 | 0.00 | 0.01 | 0.00 | 85 | 1008.9 |
| 20260509125034 | 49 | 104 | 0.9 | 2.6 | 0.00 | 0.01 | 0.00 | 86 | 1008.9 |
| 20260509124544 | 49 | 97 | 0.0 | 3.5 | 0.00 | 0.01 | 0.00 | 85 | 1008.9 |
| 20260509124034 | 49 | 100 | 0.9 | 3.5 | 0.00 | 0.01 | 0.00 | 85 | 1009.1 |
| 20260509123534 | 48 | 106 | 0.9 | 3.5 | 0.00 | 0.01 | 0.00 | 85 | 1009.0 |
| 20260509123048 | 48 | 108 | 0.9 | 3.5 | 0.00 | 0.01 | 0.00 | 85 | 1009.0 |
| 20260509122534 | 48 | 115 | 0.9 | 3.5 | 0.00 | 0.01 | 0.00 | 86 | 1009.0 |
| 20260509122034 | 47 | 103 | 0.9 | 2.6 | 0.00 | 0.01 | 0.00 | 86 | 1009.1 |
| 20260509121550 | 47 | 0 | 0.0 | 2.6 | 0.00 | 0.01 | 0.00 | 86 | 1009.1 |
| 20260509121036 | 46 | 0 | 0.0 | 2.6 | 0.00 | 0.01 | 0.00 | 86 | 1009.1 |
| 20260509120534 | 46 | 0 | 0.0 | 2.6 | 0.00 | 0.01 | 0.00 | 86 | 1009.1 |
| 20260509120041 | 45 | 0 | 0.0 | 2.6 | 0.00 | 0.01 | 0.00 | 86 | 1009.0 |
| 20260509115534 | 45 | 0 | 0.0 | 2.6 | 0.00 | 0.01 | 0.00 | 86 | 1009.2 |
| 20260509115034 | 45 | 0 | 0.0 | 0.0 | 0.00 | 0.01 | 0.00 | 87 | 1009.2 |
| 20260509114538 | 44 | 0 | 0.0 | 1.7 | 0.00 | 0.01 | 0.00 | 87 | 1009.2 |
| 20260509114034 | 44 | 0 | 0.0 | 1.7 | 0.00 | 0.01 | 0.00 | 87 | 1009.2 |
| 20260509113533 | 44 | 0 | 0.0 | 1.7 | 0.00 | 0.01 | 0.00 | 88 | 1009.1 |
| 20260509113037 | 44 | 0 | 0.0 | 1.7 | 0.00 | 0.01 | 0.00 | 88 | 1009.2 |
| 20260509112535 | 43 | 101 | 0.0 | 0.9 | 0.00 | 0.01 | 0.00 | 88 | 1009.2 |
| 20260509112034 | 43 | 0 | 0.0 | 1.7 | 0.00 | 0.01 | 0.00 | 89 | 1009.3 |
| 20260509111546 | 43 | 0 | 0.0 | 1.7 | 0.00 | 0.01 | 0.00 | 89 | 1009.2 |
| 20260509111034 | 43 | 0 | 0.9 | 1.7 | 0.00 | 0.01 | 0.00 | 90 | 1009.1 |
| 20260509110533 | 42 | 100 | 0.0 | 1.7 | 0.00 | 0.01 | 0.00 | 91 | 1009.0 |
| 20260509110048 | 42 | 100 | 0.0 | 2.6 | 0.00 | 0.01 | 0.00 | 92 | 1009.0 |
| 20260509105534 | 42 | 101 | 0.0 | 2.6 | 0.00 | 0.01 | 0.00 | 93 | 1009.1 |
| 20260509105034 | 41 | 100 | 0.0 | 2.6 | 0.00 | 0.01 | 0.00 | 93 | 1009.1 |
| 20260509104550 | 41 | 0 | 0.9 | 2.6 | 0.00 | 0.01 | 0.00 | 94 | 1009.1 |
| 20260509104035 | 40 | 98 | 0.9 | 2.6 | 0.00 | 0.01 | 0.00 | 95 | 1009.0 |
| 20260509103535 | 40 | 98 | 0.0 | 2.6 | 0.00 | 0.01 | 0.00 | 96 | 1008.9 |
| 20260509103038 | 39 | 98 | 0.9 | 2.6 | 0.00 | 0.01 | 0.00 | 96 | 1008.9 |
| 20260509102534 | 38 | 94 | 0.0 | 0.0 | 0.00 | 0.01 | 0.00 | 96 | 1009.1 |
| 20260509102034 | 38 | 0 | 0.0 | 0.0 | 0.00 | 0.01 | 0.00 | 95 | 1009.0 |
| 20260509101538 | 38 | 0 | 0.0 | 0.0 | 0.00 | 0.01 | 0.00 | 95 | 1009.1 |
| 20260509101034 | 38 | 0 | 0.0 | 0.0 | 0.00 | 0.01 | 0.00 | 95 | 1009.1 |
| 20260509100533 | 38 | 0 | 0.0 | 0.0 | 0.00 | 0.01 | 0.00 | 95 | 1009.0 |
| 20260509100044 | 38 | 0 | 0.0 | 0.0 | 0.00 | 0.01 | 0.00 | 95 | 1009.1 |
| 20260509095534 | 38 | 0 | 0.0 | 0.0 | 0.00 | 0.01 | 0.00 | 95 | 1009.2 |
| 20260509095034 | 38 | 0 | 0.0 | 0.0 | 0.00 | 0.01 | 0.00 | 95 | 1009.0 |
| 20260509094547 | 38 | 0 | 0.0 | 0.0 | 0.00 | 0.01 | 0.00 | 95 | 1009.0 |
| 20260509094034 | 38 | 0 | 0.0 | 0.0 | 0.00 | 0.01 | 0.00 | 95 | 1008.9 |
| 20260509093533 | 38 | 0 | 0.0 | 0.0 | 0.00 | 0.01 | 0.00 | 95 | 1009.1 |
| 20260509093044 | 37 | 0 | 0.0 | 0.0 | 0.00 | 0.01 | 0.00 | 95 | 1009.0 |
| 20260509092536 | 37 | 0 | 0.0 | 0.0 | 0.00 | 0.01 | 0.00 | 95 | 1008.9 |
| 20260509092034 | 38 | 0 | 0.0 | 0.0 | 0.00 | 0.01 | 0.00 | 95 | 1009.1 |
| 20260509091540 | 38 | 0 | 0.0 | 0.0 | 0.00 | 0.01 | 0.00 | 95 | 1009.0 |
| 20260509091035 | 38 | 0 | 0.0 | 0.0 | 0.00 | 0.01 | 0.00 | 95 | 1009.0 |
| 20260509090534 | 38 | 0 | 0.0 | 0.0 | 0.00 | 0.01 | 0.00 | 95 | 1009.1 |
| 20260509090100 | 37 | 0 | 0.0 | 0.0 | 0.00 | 0.01 | 0.00 | 95 | 1009.1 |
| 20260509085534 | 37 | 0 | 0.0 | 0.0 | 0.00 | 0.01 | 0.00 | 95 | 1009.1 |
| 20260509085034 | 37 | 0 | 0.0 | 0.0 | 0.00 | 0.01 | 0.00 | 95 | 1009.2 |
| 20260509084557 | 37 | 0 | 0.0 | 0.0 | 0.00 | 0.01 | 0.00 | 95 | 1009.2 |
| 20260509084035 | 38 | 0 | 0.0 | 0.0 | 0.00 | 0.01 | 0.00 | 94 | 1009.3 |
| 20260509083534 | 38 | 0 | 0.0 | 0.0 | 0.00 | 0.01 | 0.00 | 95 | 1009.4 |
| 20260509083049 | 38 | 0 | 0.0 | 0.0 | 0.00 | 0.01 | 0.00 | 95 | 1009.5 |
| 20260509082535 | 37 | 0 | 0.0 | 0.0 | 0.00 | 0.01 | 0.00 | 95 | 1009.5 |
| 20260509082034 | 37 | 0 | 0.0 | 0.0 | 0.00 | 0.01 | 0.00 | 95 | 1009.5 |
| 20260509081546 | 37 | 0 | 0.0 | 0.0 | 0.00 | 0.01 | 0.00 | 94 | 1009.6 |
| 20260509081035 | 37 | 0 | 0.0 | 0.0 | 0.00 | 0.01 | 0.00 | 94 | 1009.7 |
| 20260509080534 | 37 | 0 | 0.0 | 1.7 | 0.00 | 0.01 | 0.00 | 94 | 1009.7 |
| 20260509080043 | 37 | 0 | 0.0 | 1.7 | 0.00 | 0.01 | 0.00 | 94 | 1009.8 |
| 20260509075534 | 37 | 285 | 0.9 | 1.7 | 0.00 | 0.01 | 0.00 | 94 | 1009.8 |
| 20260509075034 | 37 | 0 | 0.0 | 0.9 | 0.00 | 0.01 | 0.00 | 94 | 1009.8 |
| 20260509074552 | 37 | 0 | 0.0 | 0.0 | 0.00 | 0.01 | 0.00 | 94 | 1009.9 |
| 20260509074033 | 37 | 0 | 0.0 | 0.0 | 0.00 | 0.01 | 0.00 | 94 | 1009.8 |
| 20260509073535 | 37 | 0 | 0.0 | 0.0 | 0.00 | 0.01 | 0.00 | 94 | 1009.9 |
| 20260509073047 | 37 | 0 | 0.0 | 0.0 | 0.00 | 0.01 | 0.00 | 94 | 1009.9 |
| 20260509072541 | 37 | 0 | 0.0 | 0.0 | 0.00 | 0.01 | 0.00 | 94 | 1010.0 |
| 20260509072034 | 37 | 0 | 0.0 | 0.0 | 0.00 | 0.01 | 0.00 | 94 | 1010.0 |
| 20260509071547 | 37 | 0 | 0.0 | 0.0 | 0.00 | 0.01 | 0.00 | 94 | 1010.0 |
| 20260509071035 | 37 | 0 | 0.0 | 0.0 | 0.00 | 0.01 | 0.00 | 94 | 1010.1 |
| 20260509070538 | 37 | 0 | 0.0 | 0.0 | 0.00 | 0.01 | 0.00 | 94 | 1010.1 |
| 20260509070049 | 37 | 0 | 0.0 | 0.0 | 0.00 | 0.01 | 0.00 | 94 | 1010.1 |
| 20260509065534 | 37 | 0 | 0.0 | 0.0 | 0.00 | 0.02 | 0.00 | 94 | 1010.2 |
| 20260509065034 | 37 | 0 | 0.0 | 0.0 | 0.00 | 0.02 | 0.00 | 94 | 1010.2 |
| 20260509064545 | 37 | 0 | 0.0 | 0.0 | 0.00 | 0.02 | 0.00 | 94 | 1010.2 |
| 20260509064035 | 37 | 0 | 0.0 | 0.0 | 0.00 | 0.02 | 0.00 | 94 | 1010.3 |
| 20260509063534 | 37 | 0 | 0.0 | 0.0 | 0.00 | 0.02 | 0.00 | 94 | 1010.3 |
| 20260509063043 | 37 | 0 | 0.0 | 0.0 | 0.00 | 0.02 | 0.00 | 93 | 1010.3 |
| 20260509062535 | 37 | 0 | 0.0 | 0.0 | 0.00 | 0.02 | 0.00 | 93 | 1010.5 |
| 20260509062035 | 37 | 0 | 0.0 | 0.0 | 0.00 | 0.02 | 0.00 | 93 | 1010.5 |
| 20260509061545 | 37 | 0 | 0.0 | 0.0 | 0.00 | 0.02 | 0.00 | 93 | 1010.6 |
| 20260509061034 | 38 | 0 | 0.0 | 0.0 | 0.00 | 0.02 | 0.00 | 93 | 1010.6 |
| 20260509060534 | 38 | 0 | 0.0 | 0.0 | 0.00 | 0.02 | 0.00 | 93 | 1010.7 |
| 20260509060048 | 38 | 0 | 0.0 | 0.0 | 0.00 | 0.02 | 0.00 | 93 | 1010.7 |
| 20260509055536 | 38 | 0 | 0.0 | 0.0 | 0.00 | 0.02 | 0.00 | 93 | 1010.8 |
| 20260509055035 | 38 | 0 | 0.0 | 0.0 | 0.00 | 0.02 | 0.00 | 94 | 1010.8 |
| 20260509054548 | 38 | 0 | 0.0 | 0.0 | 0.00 | 0.02 | 0.00 | 94 | 1010.8 |
| 20260509054034 | 38 | 0 | 0.0 | 0.0 | 0.00 | 0.02 | 0.00 | 93 | 1010.9 |
| 20260509053535 | 38 | 0 | 0.0 | 0.0 | 0.00 | 0.02 | 0.00 | 93 | 1010.9 |
| 20260509053138 | 38 | 0 | 0.0 | 0.0 | 0.00 | 0.02 | 0.00 | 93 | 1011.0 |
| 20260509052538 | 38 | 0 | 0.0 | 0.0 | 0.00 | 0.02 | 0.00 | 94 | 1011.1 |
| 20260509052034 | 38 | 0 | 0.0 | 0.0 | 0.00 | 0.02 | 0.00 | 93 | 1011.1 |
| 20260509051549 | 37 | 0 | 0.0 | 0.0 | 0.00 | 0.02 | 0.00 | 93 | 1011.2 |
| 20260509051034 | 37 | 0 | 0.0 | 0.0 | 0.00 | 0.02 | 0.00 | 93 | 1011.1 |
| 20260509050536 | 37 | 0 | 0.0 | 0.0 | 0.00 | 0.02 | 0.00 | 92 | 1011.2 |
| 20260509050048 | 37 | 0 | 0.0 | 0.0 | 0.00 | 0.02 | 0.00 | 92 | 1011.2 |
| 20260509045534 | 37 | 0 | 0.0 | 0.0 | 0.00 | 0.03 | 0.00 | 92 | 1011.1 |
| 20260509045034 | 37 | 0 | 0.0 | 0.0 | 0.00 | 0.03 | 0.00 | 92 | 1011.4 |
| 20260509044543 | 38 | 0 | 0.0 | 0.0 | 0.00 | 0.03 | 0.00 | 92 | 1011.4 |
| 20260509044034 | 38 | 0 | 0.0 | 0.0 | 0.00 | 0.03 | 0.00 | 92 | 1011.3 |
| 20260509043535 | 38 | 0 | 0.0 | 0.0 | 0.00 | 0.03 | 0.00 | 92 | 1011.4 |
| 20260509043039 | 38 | 0 | 0.0 | 0.0 | 0.00 | 0.03 | 0.00 | 92 | 1011.4 |
| 20260509042535 | 38 | 0 | 0.0 | 0.0 | 0.00 | 0.03 | 0.00 | 92 | 1011.4 |
| 20260509042036 | 38 | 0 | 0.0 | 0.0 | 0.00 | 0.03 | 0.00 | 91 | 1011.4 |
| 20260509041545 | 38 | 0 | 0.0 | 0.0 | 0.00 | 0.03 | 0.00 | 91 | 1011.5 |
| 20260509041035 | 38 | 0 | 0.0 | 0.0 | 0.00 | 0.03 | 0.00 | 91 | 1011.5 |
| 20260509040534 | 38 | 0 | 0.0 | 0.0 | 0.00 | 0.03 | 0.00 | 91 | 1011.5 |
| 20260509040107 | 38 | 0 | 0.0 | 0.0 | 0.00 | 0.03 | 0.00 | 91 | 1011.5 |
| 20260509035535 | 38 | 0 | 0.0 | 0.0 | 0.00 | 0.03 | 0.03 | 91 | 1011.5 |
| 20260509035035 | 39 | 0 | 0.0 | 0.0 | 0.00 | 0.03 | 0.03 | 91 | 1011.5 |
| 20260509034554 | 39 | 0 | 0.0 | 0.0 | 0.00 | 0.03 | 0.03 | 90 | 1011.5 |
| 20260509034034 | 39 | 0 | 0.0 | 0.0 | 0.00 | 0.03 | 0.03 | 90 | 1011.5 |
| 20260509033534 | 39 | 0 | 0.0 | 0.0 | 0.00 | 0.03 | 0.03 | 90 | 1011.5 |
| 20260509033044 | 39 | 0 | 0.0 | 0.0 | 0.00 | 0.03 | 0.03 | 90 | 1011.6 |
| 20260509032534 | 39 | 0 | 0.0 | 0.0 | 0.00 | 0.03 | 0.03 | 89 | 1011.5 |
| 20260509032034 | 39 | 0 | 0.0 | 0.0 | 0.00 | 0.03 | 0.03 | 89 | 1011.6 |
| 20260509031543 | 40 | 0 | 0.0 | 0.0 | 0.00 | 0.03 | 0.03 | 89 | 1011.6 |
| 20260509031035 | 40 | 0 | 0.0 | 0.0 | 0.00 | 0.03 | 0.03 | 89 | 1011.6 |
| 20260509030535 | 40 | 0 | 0.0 | 0.0 | 0.00 | 0.03 | 0.03 | 88 | 1011.6 |
| 20260509030040 | 40 | 0 | 0.0 | 0.0 | 0.00 | 0.03 | 0.03 | 88 | 1011.6 |
| 20260509025534 | 40 | 0 | 0.0 | 0.0 | 0.00 | 0.03 | 0.03 | 88 | 1011.7 |
| 20260509025035 | 40 | 0 | 0.0 | 0.0 | 0.00 | 0.03 | 0.03 | 87 | 1011.6 |
| 20260509024546 | 40 | 0 | 0.0 | 0.0 | 0.00 | 0.03 | 0.03 | 88 | 1011.7 |
| 20260509024035 | 40 | 0 | 0.0 | 0.0 | 0.00 | 0.03 | 0.03 | 87 | 1011.8 |
| 20260509023536 | 41 | 0 | 0.0 | 0.0 | 0.00 | 0.03 | 0.03 | 87 | 1011.7 |
| 20260509023049 | 41 | 0 | 0.0 | 0.0 | 0.00 | 0.03 | 0.03 | 87 | 1011.7 |
| 20260509022536 | 41 | 0 | 0.0 | 0.0 | 0.00 | 0.03 | 0.03 | 87 | 1011.8 |
| 20260509022037 | 41 | 0 | 0.0 | 0.0 | 0.00 | 0.03 | 0.03 | 86 | 1011.7 |
| 20260509021544 | 41 | 0 | 0.0 | 0.0 | 0.00 | 0.03 | 0.03 | 86 | 1011.7 |
| 20260509021034 | 42 | 0 | 0.0 | 0.0 | 0.00 | 0.03 | 0.03 | 86 | 1011.8 |
| 20260509020535 | 42 | 0 | 0.0 | 0.0 | 0.00 | 0.03 | 0.03 | 85 | 1011.8 |
| 20260509020047 | 42 | 0 | 0.0 | 0.0 | 0.00 | 0.03 | 0.03 | 85 | 1011.9 |
| 20260509015535 | 42 | 0 | 0.0 | 0.0 | 0.00 | 0.03 | 0.03 | 84 | 1011.9 |
| 20260509015034 | 42 | 0 | 0.0 | 0.0 | 0.00 | 0.03 | 0.03 | 84 | 1011.8 |
| 20260509014546 | 43 | 0 | 0.0 | 0.0 | 0.00 | 0.03 | 0.03 | 83 | 1011.8 |
| 20260509014036 | 43 | 0 | 0.0 | 0.0 | 0.00 | 0.03 | 0.03 | 83 | 1011.8 |
| 20260509013535 | 43 | 0 | 0.0 | 0.0 | 0.00 | 0.03 | 0.03 | 82 | 1011.7 |
| 20260509013102 | 44 | 0 | 0.0 | 0.0 | 0.00 | 0.03 | 0.03 | 82 | 1011.7 |
| 20260509012535 | 44 | 0 | 0.0 | 0.0 | 0.00 | 0.03 | 0.03 | 81 | 1011.6 |
| 20260509012038 | 44 | 0 | 0.0 | 0.0 | 0.00 | 0.03 | 0.03 | 81 | 1011.5 |
| 20260509011549 | 44 | 0 | 0.0 | 0.0 | 0.00 | 0.03 | 0.03 | 80 | 1011.5 |
| 20260509011034 | 45 | 0 | 0.0 | 0.0 | 0.00 | 0.03 | 0.03 | 79 | 1011.4 |
| 20260509010534 | 45 | 0 | 0.0 | 0.0 | 0.00 | 0.03 | 0.03 | 78 | 1011.3 |
| 20260509010046 | 45 | 0 | 0.0 | 0.0 | 0.00 | 0.03 | 0.03 | 77 | 1011.3 |
| 20260509005534 | 46 | 0 | 0.0 | 0.0 | 0.00 | 0.03 | 0.03 | 76 | 1011.2 |
| 20260509005036 | 46 | 0 | 0.0 | 0.0 | 0.00 | 0.03 | 0.03 | 75 | 1011.2 |
| 20260509004544 | 47 | 0 | 0.0 | 0.0 | 0.00 | 0.03 | 0.03 | 73 | 1011.1 |
| 20260509004034 | 47 | 0 | 0.0 | 0.0 | 0.00 | 0.03 | 0.03 | 73 | 1010.9 |
| 20260509003536 | 48 | 0 | 0.0 | 0.0 | 0.00 | 0.03 | 0.03 | 71 | 1010.9 |
| 20260509003108 | 48 | 0 | 0.0 | 0.0 | 0.00 | 0.03 | 0.03 | 70 | 1010.9 |
| 20260509002539 | 49 | 0 | 0.0 | 0.0 | 0.00 | 0.03 | 0.03 | 70 | 1010.9 |
| 20260509002035 | 49 | 0 | 0.0 | 0.0 | 0.00 | 0.03 | 0.03 | 70 | 1010.9 |
| 20260509001546 | 49 | 0 | 0.0 | 0.0 | 0.00 | 0.03 | 0.03 | 68 | 1010.8 |
| 20260509001034 | 50 | 0 | 0.0 | 0.0 | 0.00 | 0.03 | 0.03 | 69 | 1010.9 |
| 20260509000628 | 50 | 0 | 0.0 | 0.0 | 0.00 | 0.03 | 0.03 | 67 | 1010.8 |
| 20260509000103 | 50 | 0 | 0.0 | 0.0 | 0.00 | 0.03 | 0.03 | 67 | 1010.8 |
| 20260508235535 | 51 | 0 | 0.0 | 0.0 | 0.00 | 0.03 | 0.03 | 66 | 1010.8 |
| 20260508235035 | 51 | 0 | 0.0 | 0.0 | 0.00 | 0.03 | 0.03 | 64 | 1010.8 |
| 20260508234545 | 52 | 0 | 0.0 | 0.0 | 0.00 | 0.03 | 0.03 | 66 | 1010.7 |
| 20260508234035 | 52 | 0 | 0.0 | 0.9 | 0.00 | 0.03 | 0.03 | 64 | 1010.7 |
| 20260508233534 | 52 | 0 | 0.0 | 0.9 | 0.00 | 0.03 | 0.03 | 62 | 1010.6 |
| 20260508233050 | 52 | 0 | 0.0 | 0.9 | 0.00 | 0.03 | 0.03 | 60 | 1010.6 |
| 20260508232535 | 53 | 0 | 0.0 | 0.0 | 0.00 | 0.03 | 0.03 | 60 | 1010.7 |
| 20260508232035 | 53 | 0 | 0.0 | 2.6 | 0.00 | 0.03 | 0.03 | 59 | 1010.7 |
| 20260508231549 | 53 | 0 | 0.0 | 2.6 | 0.00 | 0.03 | 0.03 | 59 | 1010.7 |
| 20260508231035 | 53 | 286 | 0.0 | 2.6 | 0.00 | 0.03 | 0.03 | 57 | 1010.7 |
| 20260508230534 | 53 | 0 | 0.0 | 2.6 | 0.00 | 0.03 | 0.03 | 57 | 1010.7 |
| 20260508230046 | 54 | 0 | 0.0 | 2.6 | 0.00 | 0.03 | 0.03 | 56 | 1010.6 |
| 20260508225535 | 54 | 286 | 0.9 | 2.6 | 0.00 | 0.03 | 0.03 | 54 | 1010.7 |
| 20260508225035 | 54 | 216 | 0.0 | 2.6 | 0.00 | 0.03 | 0.03 | 55 | 1010.6 |
| 20260508224546 | 54 | 216 | 0.0 | 1.7 | 0.00 | 0.03 | 0.03 | 54 | 1010.7 |
| 20260508224034 | 54 | 107 | 0.0 | 1.7 | 0.00 | 0.03 | 0.03 | 56 | 1010.7 |
| 20260508223534 | 54 | 0 | 0.0 | 1.7 | 0.00 | 0.03 | 0.03 | 54 | 1010.6 |
| 20260508223045 | 54 | 109 | 0.0 | 1.7 | 0.00 | 0.03 | 0.03 | 54 | 1010.7 |
| 20260508222535 | 54 | 0 | 0.0 | 1.7 | 0.00 | 0.03 | 0.03 | 55 | 1010.7 |
| 20260508222035 | 54 | 0 | 0.0 | 2.6 | 0.00 | 0.03 | 0.03 | 55 | 1010.7 |
| 20260508221543 | 54 | 0 | 0.0 | 2.6 | 0.00 | 0.03 | 0.03 | 54 | 1010.7 |
| 20260508221034 | 54 | 0 | 0.0 | 2.6 | 0.00 | 0.03 | 0.03 | 51 | 1010.7 |
| 20260508220535 | 54 | 115 | 0.9 | 2.6 | 0.00 | 0.03 | 0.03 | 51 | 1010.7 |
| 20260508220049 | 54 | 132 | 0.0 | 1.7 | 0.00 | 0.03 | 0.03 | 51 | 1010.8 |
| 20260508215540 | 54 | 132 | 0.0 | 2.6 | 0.00 | 0.03 | 0.03 | 52 | 1010.8 |
| 20260508215038 | 54 | 291 | 0.0 | 4.3 | 0.00 | 0.03 | 0.03 | 53 | 1010.8 |
| 20260508214538 | 55 | 0 | 0.0 | 4.3 | 0.00 | 0.03 | 0.03 | 50 | 1010.8 |
| 20260508214034 | 55 | 302 | 0.9 | 3.5 | 0.00 | 0.03 | 0.03 | 51 | 1010.8 |
| 20260508213534 | 55 | 0 | 0.9 | 3.5 | 0.00 | 0.03 | 0.03 | 50 | 1010.9 |
| 20260508213048 | 55 | 281 | 0.9 | 6.1 | 0.00 | 0.03 | 0.03 | 51 | 1011.0 |
| 20260508212535 | 55 | 269 | 1.7 | 7.0 | 0.00 | 0.03 | 0.03 | 51 | 1011.0 |
| 20260508212033 | 55 | 290 | 1.7 | 7.0 | 0.00 | 0.03 | 0.03 | 51 | 1011.0 |
| 20260508211550 | 56 | 277 | 2.6 | 7.0 | 0.00 | 0.03 | 0.03 | 49 | 1011.0 |
| 20260508211038 | 56 | 161 | 0.9 | 3.5 | 0.00 | 0.03 | 0.03 | 53 | 1010.9 |
| 20260508210536 | 56 | 98 | 0.9 | 4.3 | 0.00 | 0.03 | 0.03 | 54 | 1011.0 |
| 20260508210050 | 56 | 108 | 0.9 | 4.3 | 0.00 | 0.03 | 0.03 | 52 | 1011.1 |
| 20260508205534 | 56 | 223 | 0.9 | 4.3 | 0.00 | 0.03 | 0.03 | 55 | 1011.0 |
| 20260508205034 | 56 | 0 | 0.9 | 3.5 | 0.00 | 0.03 | 0.03 | 54 | 1011.2 |
| 20260508204544 | 56 | 96 | 0.0 | 2.6 | 0.00 | 0.03 | 0.03 | 55 | 1011.1 |
| 20260508204034 | 56 | 120 | 0.0 | 2.6 | 0.00 | 0.03 | 0.03 | 57 | 1011.2 |
| 20260508203534 | 56 | 0 | 0.0 | 3.5 | 0.00 | 0.03 | 0.03 | 55 | 1011.3 |
| 20260508203050 | 55 | 296 | 0.9 | 6.1 | 0.00 | 0.03 | 0.03 | 57 | 1011.3 |
| 20260508202535 | 55 | 309 | 0.9 | 6.1 | 0.00 | 0.03 | 0.03 | 56 | 1011.3 |
| 20260508202035 | 55 | 263 | 1.7 | 6.1 | 0.00 | 0.03 | 0.03 | 53 | 1011.5 |
| 20260508201541 | 56 | 272 | 0.9 | 2.6 | 0.00 | 0.03 | 0.03 | 52 | 1011.5 |
| 20260508201035 | 55 | 148 | 0.0 | 5.2 | 0.00 | 0.03 | 0.03 | 56 | 1011.5 |
| 20260508200535 | 55 | 219 | 0.9 | 7.0 | 0.00 | 0.03 | 0.03 | 58 | 1011.4 |
| 20260508200041 | 55 | 288 | 0.9 | 7.0 | 0.00 | 0.03 | 0.03 | 61 | 1011.5 |
| 20260508195534 | 55 | 302 | 2.6 | 7.0 | 0.00 | 0.03 | 0.03 | 58 | 1011.7 |
| 20260508195034 | 55 | 5 | 0.9 | 5.2 | 0.00 | 0.03 | 0.03 | 64 | 1011.7 |
| 20260508194545 | 54 | 0 | 0.9 | 7.0 | 0.00 | 0.03 | 0.03 | 64 | 1011.6 |
| 20260508194034 | 54 | 119 | 1.7 | 7.0 | 0.00 | 0.03 | 0.03 | 63 | 1011.8 |
| 20260508193534 | 54 | 273 | 0.9 | 6.1 | 0.00 | 0.03 | 0.03 | 59 | 1011.7 |
| 20260508193055 | 54 | 290 | 1.7 | 6.1 | 0.00 | 0.03 | 0.03 | 56 | 1011.8 |
| 20260508192534 | 54 | 134 | 1.7 | 6.1 | 0.00 | 0.03 | 0.03 | 63 | 1011.8 |
| 20260508192035 | 54 | 99 | 1.7 | 7.0 | 0.00 | 0.03 | 0.03 | 65 | 1011.9 |
| 20260508191544 | 53 | 112 | 1.7 | 7.0 | 0.00 | 0.03 | 0.03 | 67 | 1011.9 |
| 20260508191035 | 52 | 348 | 0.9 | 4.3 | 0.00 | 0.03 | 0.03 | 66 | 1011.8 |
| 20260508190535 | 51 | 338 | 0.9 | 6.1 | 0.00 | 0.03 | 0.03 | 66 | 1011.8 |
| 20260508190046 | 51 | 283 | 0.9 | 6.1 | 0.00 | 0.03 | 0.03 | 67 | 1011.8 |
| 20260508185538 | 51 | 302 | 1.7 | 6.1 | 0.00 | 0.03 | 0.03 | 63 | 1011.8 |
| 20260508185034 | 51 | 290 | 0.9 | 7.0 | 0.00 | 0.03 | 0.03 | 62 | 1011.8 |
| 20260508184544 | 51 | 288 | 1.7 | 7.0 | 0.00 | 0.03 | 0.03 | 60 | 1011.7 |
| 20260508184034 | 52 | 298 | 0.9 | 4.3 | 0.00 | 0.03 | 0.03 | 60 | 1011.8 |
| 20260508183535 | 52 | 192 | 1.7 | 4.3 | 0.00 | 0.03 | 0.03 | 56 | 1011.7 |
| 20260508183059 | 52 | 274 | 2.6 | 4.3 | 0.00 | 0.03 | 0.03 | 62 | 1011.9 |
| 20260508182535 | 51 | 238 | 1.7 | 6.1 | 0.00 | 0.03 | 0.03 | 59 | 1011.9 |
| 20260508182034 | 51 | 214 | 1.7 | 7.0 | 0.00 | 0.03 | 0.03 | 64 | 1011.9 |
| 20260508181545 | 50 | 180 | 2.6 | 7.0 | 0.00 | 0.03 | 0.03 | 62 | 1012.0 |
| 20260508181034 | 51 | 190 | 3.5 | 7.0 | 0.00 | 0.03 | 0.03 | 62 | 1012.0 |
| 20260508180535 | 51 | 265 | 0.9 | 5.2 | 0.00 | 0.03 | 0.03 | 63 | 1012.1 |
| 20260508180046 | 51 | 210 | 0.9 | 4.3 | 0.00 | 0.03 | 0.03 | 62 | 1012.1 |
| 20260508175534 | 51 | 196 | 1.7 | 3.5 | 0.00 | 0.03 | 0.03 | 62 | 1012.1 |
| 20260508175037 | 51 | 298 | 1.7 | 3.5 | 0.00 | 0.03 | 0.03 | 61 | 1012.0 |
| 20260508174557 | 51 | 301 | 0.9 | 3.5 | 0.00 | 0.03 | 0.03 | 61 | 1012.2 |
| 20260508174035 | 51 | 258 | 0.0 | 3.5 | 0.00 | 0.03 | 0.03 | 63 | 1012.2 |
| 20260508173535 | 51 | 170 | 0.0 | 2.6 | 0.00 | 0.03 | 0.03 | 66 | 1012.2 |
| 20260508173047 | 51 | 62 | 0.0 | 2.6 | 0.00 | 0.03 | 0.03 | 71 | 1012.2 |
| 20260508172535 | 51 | 0 | 0.9 | 2.6 | 0.00 | 0.03 | 0.03 | 70 | 1012.3 |
| 20260508172035 | 50 | 64 | 0.9 | 2.6 | 0.00 | 0.03 | 0.03 | 73 | 1012.4 |
| 20260508171545 | 49 | 104 | 0.0 | 2.6 | 0.00 | 0.03 | 0.03 | 80 | 1012.4 |
| 20260508171038 | 48 | 0 | 0.0 | 2.6 | 0.00 | 0.03 | 0.03 | 76 | 1012.5 |
| 20260508170534 | 48 | 0 | 0.0 | 2.6 | 0.00 | 0.03 | 0.03 | 76 | 1012.5 |
| 20260508170055 | 47 | 99 | 1.7 | 3.5 | 0.00 | 0.03 | 0.03 | 76 | 1012.5 |
| 20260508165535 | 47 | 113 | 0.9 | 3.5 | 0.00 | 0.03 | 0.03 | 78 | 1012.7 |
| 20260508165035 | 47 | 0 | 0.0 | 2.6 | 0.00 | 0.03 | 0.03 | 78 | 1012.7 |
| 20260508164548 | 47 | 0 | 0.0 | 2.6 | 0.00 | 0.03 | 0.03 | 76 | 1012.8 |
| 20260508164034 | 47 | 328 | 0.0 | 3.5 | 0.00 | 0.03 | 0.03 | 76 | 1012.8 |
| 20260508163536 | 48 | 0 | 0.9 | 4.3 | 0.00 | 0.03 | 0.03 | 73 | 1012.9 |
| 20260508163108 | 48 | 340 | 0.0 | 5.2 | 0.00 | 0.03 | 0.03 | 68 | 1012.9 |
| 20260508162536 | 48 | 224 | 0.9 | 5.2 | 0.00 | 0.03 | 0.03 | 69 | 1012.8 |
| 20260508162034 | 48 | 0 | 0.0 | 2.6 | 0.00 | 0.03 | 0.03 | 69 | 1012.8 |
| 20260508161550 | 48 | 0 | 0.9 | 4.3 | 0.00 | 0.03 | 0.03 | 68 | 1012.8 |
| 20260508161037 | 48 | 247 | 1.7 | 4.3 | 0.00 | 0.03 | 0.03 | 69 | 1012.8 |
| 20260508160535 | 48 | 120 | 0.9 | 3.5 | 0.00 | 0.03 | 0.03 | 71 | 1012.8 |
| 20260508160047 | 48 | 0 | 1.7 | 3.5 | 0.00 | 0.03 | 0.03 | 73 | 1012.7 |
| 20260508155537 | 48 | 0 | 0.9 | 4.3 | 0.00 | 0.03 | 0.03 | 73 | 1012.7 |
| 20260508155037 | 48 | 204 | 1.7 | 5.2 | 0.00 | 0.03 | 0.03 | 69 | 1012.8 |
| 20260508154551 | 48 | 0 | 0.9 | 5.2 | 0.00 | 0.03 | 0.03 | 71 | 1012.8 |
| 20260508154034 | 48 | 219 | 0.9 | 6.1 | 0.00 | 0.03 | 0.03 | 72 | 1012.8 |
| 20260508153535 | 47 | 0 | 0.0 | 6.1 | 0.00 | 0.03 | 0.03 | 71 | 1012.8 |
| 20260508153047 | 47 | 257 | 1.7 | 3.5 | 0.00 | 0.03 | 0.03 | 76 | 1012.8 |
| 20260508152535 | 47 | 0 | 0.9 | 4.3 | 0.00 | 0.03 | 0.03 | 77 | 1012.6 |
| 20260508152041 | 47 | 174 | 1.7 | 4.3 | 0.00 | 0.03 | 0.03 | 76 | 1012.6 |
| 20260508151545 | 46 | 308 | 1.7 | 4.3 | 0.00 | 0.03 | 0.03 | 75 | 1012.7 |
| 20260508151034 | 46 | 0 | 1.7 | 4.3 | 0.00 | 0.03 | 0.03 | 77 | 1012.7 |
| 20260508150535 | 46 | 229 | 0.9 | 4.3 | 0.00 | 0.03 | 0.03 | 83 | 1012.6 |
| 20260508150044 | 45 | 251 | 1.7 | 4.3 | 0.01 | 0.03 | 0.03 | 80 | 1012.6 |
| 20260508145535 | 45 | 237 | 0.9 | 4.3 | 0.01 | 0.03 | 0.03 | 83 | 1012.5 |
| 20260508145036 | 45 | 217 | 1.7 | 6.1 | 0.01 | 0.03 | 0.03 | 83 | 1012.7 |
| 20260508144543 | 44 | 0 | 1.7 | 6.1 | 0.01 | 0.03 | 0.03 | 86 | 1012.9 |
| 20260508144048 | 44 | 200 | 1.7 | 5.2 | 0.01 | 0.03 | 0.03 | 87 | 1012.8 |
| 20260508143535 | 44 | 0 | 0.9 | 4.3 | 0.01 | 0.03 | 0.03 | 89 | 1012.9 |
| 20260508143039 | 44 | 211 | 0.9 | 4.3 | 0.01 | 0.03 | 0.03 | 91 | 1013.0 |
| 20260508142535 | 43 | 211 | 0.0 | 2.6 | 0.01 | 0.03 | 0.03 | 90 | 1013.0 |
| 20260508142035 | 42 | 223 | 0.9 | 2.6 | 0.01 | 0.03 | 0.03 | 89 | 1013.1 |
| 20260508141552 | 42 | 0 | 0.9 | 2.6 | 0.01 | 0.03 | 0.03 | 88 | 1012.9 |
| 20260508141035 | 42 | 0 | 0.0 | 1.7 | 0.01 | 0.03 | 0.03 | 89 | 1013.0 |
| 20260508140534 | 42 | 300 | 0.0 | 1.7 | 0.01 | 0.03 | 0.03 | 87 | 1013.0 |
| 20260508140049 | 42 | 300 | 0.0 | 1.7 | 0.00 | 0.02 | 0.02 | 86 | 1013.2 |
| 20260508135535 | 42 | 0 | 0.0 | 1.7 | 0.00 | 0.02 | 0.02 | 87 | 1013.3 |
| 20260508135037 | 42 | 0 | 0.0 | 3.5 | 0.00 | 0.02 | 0.02 | 87 | 1013.3 |
| 20260508134546 | 42 | 0 | 0.0 | 5.2 | 0.00 | 0.02 | 0.02 | 88 | 1013.2 |
| 20260508134034 | 42 | 212 | 0.9 | 5.2 | 0.00 | 0.02 | 0.02 | 89 | 1013.1 |
| 20260508133536 | 42 | 267 | 0.9 | 5.2 | 0.00 | 0.02 | 0.02 | 91 | 1013.0 |
| 20260508133049 | 42 | 202 | 1.7 | 4.3 | 0.00 | 0.02 | 0.02 | 92 | 1012.9 |
| 20260508132534 | 42 | 303 | 0.9 | 3.5 | 0.00 | 0.02 | 0.02 | 94 | 1012.8 |